Previsão horária em Cave Spring

Hoje, 29 Julho, Quinta-feira

Tempo Temperatura Precipitação Vento Pressão Humidade
00:00 +23°C° 0 mm 1 m/s 730 mmHg 69%
01:00 +22°C° 0 mm 1 m/s 730 mmHg 74%
02:00 +22°C° 0 mm 1 m/s 730 mmHg 76%
03:00 +21°C° 0 mm 1 m/s 730 mmHg 78%
04:00 +21°C° 0 mm 1 m/s 729 mmHg 80%
05:00 +22°C° 0 mm 1 m/s 730 mmHg 77%
06:00 +23°C° 0 mm 1 m/s 730 mmHg 74%
07:00 +23°C° 0 mm 1 m/s 730 mmHg 71%
08:00 +26°C° 0 mm 1 m/s 730 mmHg 62%
09:00 +29°C° 0 mm 1 m/s 731 mmHg 53%
10:00 +32°C° 0 mm 2 m/s 731 mmHg 44%
11:00 +34°C° 0 mm 2 m/s 731 mmHg 40%
12:00 +35°C° 0 mm 2 m/s 730 mmHg 37%
13:00 +36°C° 0 mm 2 m/s 730 mmHg 33%
14:00 +36°C° 0 mm 2 m/s 729 mmHg 32%
15:00 +37°C° 0 mm 2 m/s 729 mmHg 32%
16:00 +37°C° 0 mm 3 m/s 728 mmHg 31%
17:00 +35°C° 0 mm 2 m/s 728 mmHg 39%
18:00 +32°C° 0 mm 2 m/s 728 mmHg 47%
19:00 +30°C° 0 mm 1 m/s 727 mmHg 55%
20:00 +29°C° 0 mm 1 m/s 728 mmHg 55%
21:00 +29°C° 0 mm 2 m/s 728 mmHg 55%
22:00 +28°C° 0 mm 2 m/s 728 mmHg 55%
23:00 +27°C° 0 mm 2 m/s 728 mmHg 58%

Amanhã, 30 Julho, Sexta-feira

Tempo Temperatura Precipitação Vento Pressão Humidade
00:00 +26°C° 0 mm 2 m/s 727 mmHg 61%
01:00 +25°C° 0 mm 3 m/s 727 mmHg 64%
02:00 +25°C° 0 mm 2 m/s 727 mmHg 68%
03:00 +24°C° 0 mm 2 m/s 727 mmHg 72%
04:00 +23°C° 0 mm 2 m/s 727 mmHg 76%
05:00 +24°C° 0 mm 2 m/s 727 mmHg 76%
06:00 +25°C° 0 mm 1 m/s 727 mmHg 76%
07:00 +25°C° 0 mm 1 m/s 728 mmHg 76%
08:00 +27°C° 0 mm 2 m/s 728 mmHg 71%
09:00 +28°C° 0 mm 2 m/s 728 mmHg 66%
10:00 +30°C° 0 mm 3 m/s 728 mmHg 61%
11:00 +31°C° 0 mm 3 m/s 728 mmHg 54%
12:00 +33°C° 0 mm 4 m/s 728 mmHg 47%
13:00 +34°C° 0 mm 5 m/s 729 mmHg 41%
14:00 +34°C° 0 mm 5 m/s 729 mmHg 39%
15:00 +34°C° 0 mm 5 m/s 729 mmHg 36%
16:00 +34°C° 0 mm 5 m/s 728 mmHg 34%
17:00 +32°C° 0 mm 4 m/s 729 mmHg 41%
18:00 +29°C° 0 mm 3 m/s 729 mmHg 47%
19:00 +27°C° 0 mm 2 m/s 729 mmHg 54%
20:00 +26°C° 0 mm 2 m/s 729 mmHg 58%
21:00 +24°C° 0 mm 2 m/s 730 mmHg 62%
22:00 +22°C° 0 mm 1 m/s 730 mmHg 65%
23:00 +22°C° 0 mm 1 m/s 730 mmHg 68%

Depois de amanhã, 31 Julho, Sábado

Tempo Temperatura Precipitação Vento Pressão Humidade
00:00 +21°C° 0 mm 1 m/s 730 mmHg 72%
01:00 +20°C° 0 mm 1 m/s 731 mmHg 75%
02:00 +17°C° 0 mm 0 m/s 731 mmHg 77%
03:00 +17°C° 0 mm 0 m/s 731 mmHg 79%
04:00 +16°C° 0 mm 0 m/s 731 mmHg 81%
05:00 +17°C° 0 mm 0 m/s 731 mmHg 78%
06:00 +17°C° 0 mm 0 m/s 731 mmHg 74%
07:00 +18°C° 0 mm 0 m/s 732 mmHg 71%
08:00 +22°C° 0 mm 1 m/s 732 mmHg 63%
09:00 +24°C° 0 mm 1 m/s 732 mmHg 56%
10:00 +27°C° 0 mm 1 m/s 732 mmHg 48%
11:00 +28°C° 0 mm 1 m/s 732 mmHg 44%
12:00 +30°C° 0 mm 1 m/s 731 mmHg 40%
13:00 +31°C° 0 mm 1 m/s 731 mmHg 36%
14:00 +31°C° 0 mm 2 m/s 730 mmHg 35%
15:00 +32°C° 0 mm 2 m/s 730 mmHg 34%
16:00 +32°C° 0 mm 2 m/s 730 mmHg 33%
17:00 +30°C° 0 mm 1 m/s 730 mmHg 42%
18:00 +28°C° 0 mm 1 m/s 730 mmHg 51%
19:00 +24°C° 0 mm 0 m/s 729 mmHg 59%
20:00 +23°C° 0 mm 0 m/s 730 mmHg 60%
21:00 +22°C° 0 mm 0 m/s 730 mmHg 61%
22:00 +21°C° 0 mm 0 m/s 730 mmHg 61%
23:00 +21°C° 0 mm 0 m/s 730 mmHg 61%

1 Agosto, Domingo

Tempo Temperatura Precipitação Vento Pressão Humidade
00:00 +21°C° 0 mm 0 m/s 729 mmHg 61%
01:00 +21°C° 0 mm 0 m/s 729 mmHg 61%
02:00 +20°C° 0.1 mm 0 m/s 729 mmHg 64%
03:00 +20°C° 0.1 mm 0 m/s 729 mmHg 67%
04:00 +20°C° 0.1 mm 0 m/s 729 mmHg 70%
05:00 +20°C° 0 mm 0 m/s 729 mmHg 70%
06:00 +20°C° 0 mm 0 m/s 729 mmHg 71%
07:00 +20°C° 0 mm 0 m/s 729 mmHg 72%
08:00 +22°C° 0 mm 0 m/s 729 mmHg 61%
09:00 +27°C° 0 mm 1 m/s 729 mmHg 51%
10:00 +29°C° 0 mm 1 m/s 729 mmHg 40%
11:00 +30°C° 0 mm 2 m/s 729 mmHg 37%
12:00 +31°C° 0 mm 2 m/s 729 mmHg 33%
13:00 +33°C° 0 mm 3 m/s 728 mmHg 30%
14:00 +33°C° 0 mm 3 m/s 728 mmHg 31%
15:00 +33°C° 0 mm 4 m/s 728 mmHg 32%
16:00 +33°C° 0 mm 4 m/s 728 mmHg 33%
17:00 +30°C° 0 mm 4 m/s 728 mmHg 40%
18:00 +28°C° 0 mm 3 m/s 728 mmHg 46%
19:00 +26°C° 0 mm 3 m/s 728 mmHg 53%
20:00 +24°C° 0 mm 3 m/s 728 mmHg 58%
21:00 +23°C° 0 mm 2 m/s 729 mmHg 64%
22:00 +21°C° 0 mm 1 m/s 729 mmHg 70%
23:00 +21°C° 0 mm 1 m/s 729 mmHg 73%

2 Agosto, Segunda-feira

Tempo Temperatura Precipitação Vento Pressão Humidade
00:00 +20°C° 0 mm 1 m/s 729 mmHg 76%
01:00 +20°C° 0 mm 1 m/s 729 mmHg 78%
02:00 +19°C° 0 mm 1 m/s 729 mmHg 81%
03:00 +19°C° 0 mm 1 m/s 729 mmHg 84%
04:00 +18°C° 0 mm 1 m/s 729 mmHg 86%
05:00 +19°C° 0 mm 1 m/s 729 mmHg 83%
06:00 +20°C° 0 mm 1 m/s 729 mmHg 80%
07:00 +21°C° 0 mm 1 m/s 730 mmHg 77%
08:00 +24°C° 0 mm 1 m/s 730 mmHg 67%
09:00 +26°C° 0 mm 1 m/s 730 mmHg 58%
10:00 +29°C° 0 mm 1 m/s 730 mmHg 49%
11:00 +29°C° 0.1 mm 1 m/s 730 mmHg 47%
12:00 +30°C° 0.1 mm 1 m/s 729 mmHg 45%
13:00 +31°C° 0.1 mm 2 m/s 729 mmHg 43%
14:00 +30°C° 0.1 mm 1 m/s 729 mmHg 47%
15:00 +29°C° 0.1 mm 1 m/s 728 mmHg 50%
16:00 +28°C° 0.1 mm 1 m/s 728 mmHg 54%
17:00 +27°C° 0 mm 1 m/s 728 mmHg 58%
18:00 +26°C° 0 mm 1 m/s 728 mmHg 61%
19:00 +25°C° 0 mm 1 m/s 728 mmHg 65%
20:00 +22°C° 0.2 mm 0 m/s 728 mmHg 71%
21:00 +21°C° 0.2 mm 0 m/s 729 mmHg 76%
22:00 +19°C° 0.2 mm 0 m/s 729 mmHg 82%
23:00 +19°C° 0 mm 0 m/s 729 mmHg 84%

3 Agosto, Terça-feira

Tempo Temperatura Precipitação Vento Pressão Humidade
00:00 +20°C° 0 mm 1 m/s 729 mmHg 86%
01:00 +19°C° 0 mm 1 m/s 728 mmHg 87%
02:00 +19°C° 0 mm 1 m/s 728 mmHg 88%
03:00 +18°C° 0 mm 1 m/s 728 mmHg 88%
04:00 +18°C° 0 mm 1 m/s 728 mmHg 88%
05:00 +19°C° 0 mm 1 m/s 728 mmHg 85%
06:00 +19°C° 0 mm 1 m/s 729 mmHg 81%
07:00 +20°C° 0 mm 1 m/s 729 mmHg 78%
08:00 +23°C° 0 mm 1 m/s 729 mmHg 69%
09:00 +25°C° 0 mm 1 m/s 730 mmHg 59%
10:00 +28°C° 0 mm 1 m/s 730 mmHg 50%
11:00 +29°C° 0 mm 1 m/s 729 mmHg 46%
12:00 +30°C° 0 mm 1 m/s 729 mmHg 43%
13:00 +31°C° 0 mm 1 m/s 729 mmHg 39%
14:00 +30°C° 0 mm 1 m/s 729 mmHg 45%
15:00 +29°C° 0 mm 1 m/s 729 mmHg 51%
16:00 +28°C° 0 mm 1 m/s 729 mmHg 57%
17:00 +27°C° 0.1 mm 1 m/s 729 mmHg 62%
18:00 +26°C° 0.1 mm 1 m/s 729 mmHg 67%
19:00 +23°C° 0.1 mm 0 m/s 729 mmHg 72%
20:00 +21°C° 0.5 mm 0 m/s 729 mmHg 79%
21:00 +20°C° 0.5 mm 0 m/s 730 mmHg 86%
22:00 +18°C° 0.5 mm 0 m/s 730 mmHg 93%
23:00 +18°C° 0.2 mm 0 m/s 730 mmHg 94%
Mostrar mais

Necessitamos do seu Consentimento

A Meteoprog e os seus Fornecedores de Serviços podem armazenar e aceder a dados pessoais como cookies, identificadores do dispositivo ou outras tecnologias semelhantes existentes no seu dispositivo e processar estes dados para personalizar conteúdos e anúncios, assim como funcionalidades nas redes sociais e análise de tráfego.

  • Armazenar e/ou aceder a informações no seu dispositivo

    Os cookies, identificadores do dispositivo ou outras informações podem ser armazenados ou acedidos no seu dispositivo, para os fins acima indicados.

  • Anúncios e conteúdos personalizados, medição de anúncios e conteúdos, dados sobre o público-alvo e desenvolvimento de produtos

    Os anúncios e os conteúdos podem ser personalizados com base num perfil. Podem ser adicionados dados adicionais para uma maior personalização dos anúncios e dos conteúdos. A eficácia dos anúncios e dos conteúdos pode ser medida. Podem ser obtidas informações sobre o público que visualizou os anúncios e os conteúdos. Estes dados podem ser usados para desenvolver ou melhorar sistemas, softwares ou a experiência do utilizador.

Ao clicar em "Eu concordo”, permitirá o uso de cookies, identificadores do dispositivo e web beacons mencionados ou outras tecnologias semelhantes. As configurações do navegador do seu dispositivo podem ser alteradas.

Para certos fins, podem ser invocados interesses legítimos ao invés de consentimento. Pode ler mais informação sobre este assunto na nossa Política de Privacidade e Cookies.